QPF
0.00 0.00 0.00 0.00 0.00 0.00 0.00 0.00 0.00 0.00 0.01 0.01 0.01 0.02 0.04 0.03 0.02 0.01 0.01 0.02 0.03 0.03 0.02 0.02 0.01 0.01 0.00 0.00 0.00 0.01 0.01 0.02 0.02 0.02 0.02 0.01 0.01 0.02 0.02 0.02 0.02 0.02 0.03 0.04
0.00 0.00 0.00 0.00 0.00 0.00 0.00 0.00 0.00 0.00 0.00 0.01 0.04 0.05 0.07 0.04 0.02 0.02 0.02 0.01 0.01 0.01 0.01 0.01 0.01 0.01 0.00 0.00 0.00 0.01 0.01 0.01 0.01 0.01 0.01 0.01 0.01 0.01 0.01 0.01 0.02 0.02 0.02 0.03
0.00 0.00 0.00 0.00 0.00 0.00 0.00 0.00 0.00 0.00 0.00 0.01 0.02 0.03 0.05 0.03 0.02 0.02 0.02 0.01 0.01 0.01 0.01 0.01 0.01 0.00 0.00 0.00 0.00 0.00 0.01 0.01 0.01 0.01 0.01 0.01 0.01 0.01 0.02 0.02 0.02 0.02 0.02 0.03
0.00 0.00 0.00 0.00 0.00 0.00 0.00 0.00 0.00 0.00 0.00 0.00 0.01 0.01 0.01 0.01 0.01 0.01 0.01 0.00 0.00 0.01 0.01 0.01 0.00 0.00 0.00 0.00 0.00 0.01 0.01 0.01 0.01 0.01 0.01 0.02 0.02 0.02 0.02 0.01 0.02 0.01 0.02 0.02
0.01 0.00 0.00 0.00 0.00 0.00 0.00 0.00 0.00 0.00 0.00 0.00 0.00 0.00 0.00 0.00 0.01 0.02 0.01 0.00 0.00 0.00 0.01 0.01 0.01 0.00 0.00 0.00 0.00 0.01 0.01 0.02 0.02 0.02 0.02 0.02 0.01 0.02 0.02 0.02 0.02 0.01 0.01 0.01
0.00 0.00 0.00 0.00 0.00 0.00 0.00 0.00 0.00 0.00 0.00 0.00 0.01 0.02 0.01 0.00 0.00 0.01 0.01 0.01 0.01 0.00 0.01 0.01 0.01 0.01 0.01 0.01 0.02 0.02 0.03 0.02 0.02 0.02 0.02 0.02 0.03 0.03 0.03 0.03 0.02 0.01 0.02 0.01
0.00 0.00 0.00 0.00 0.00 0.00 0.01 0.01 0.00 0.00 0.00 0.00 0.00 0.01 0.02 0.01 0.00 0.00 0.00 0.03 0.03 0.00 0.00 0.00 0.01 0.00 0.01 0.01 0.02 0.02 0.02 0.03 0.03 0.02 0.03 0.04 0.05 0.05 0.05 0.03 0.02 0.01 0.01 0.01
0.00 0.01 0.01 0.00 0.00 0.01 0.01 0.00 0.00 0.00 0.00 0.00 0.00 0.01 0.03 0.02 0.01 0.00 0.00 0.00 0.01 0.01 0.01 0.01 0.01 0.01 0.01 0.01 0.02 0.02 0.02 0.02 0.02 0.03 0.03 0.04 0.05 0.06 0.05 0.05 0.04 0.02 0.01 0.01
0.02 0.02 0.01 0.01 0.01 0.00 0.00 0.00 0.00 0.00 0.00 0.00 0.00 0.00 0.01 0.01 0.01 0.00 0.00 0.00 0.00 0.00 0.00 0.01 0.02 0.02 0.02 0.02 0.02 0.01 0.01 0.02 0.02 0.02 0.03 0.05 0.06 0.04 0.04 0.04 0.03 0.02 0.02 0.02
0.03 0.02 0.02 0.02 0.01 0.01 0.00 0.00 0.00 0.00 0.00 0.00 0.00 0.00 0.01 0.02 0.02 0.01 0.01 0.00 0.00 0.00 0.00 0.01 0.01 0.03 0.04 0.03 0.01 0.02 0.02 0.02 0.02 0.02 0.03 0.04 0.05 0.04 0.05 0.06 0.04 0.02 0.02 0.02
0.04 0.03 0.03 0.05 0.04 0.01 0.01 0.00 0.00 0.00 0.00 0.00 0.00 0.01 0.04 0.06 0.03 0.03 0.02 0.01 0.01 0.00 0.00 0.01 0.01 0.02 0.03 0.02 0.01 0.01 0.02 0.02 0.02 0.02 0.03 0.04 0.04 0.04 0.05 0.03 0.02 0.01 0.02 0.02
0.08 0.05 0.05 0.07 0.05 0.03 0.01 0.00 0.00 0.01 0.01 0.01 0.01 0.01 0.03 0.05 0.02 0.02 0.02 0.02 0.01 0.01 0.01 0.01 0.01 0.01 0.01 0.02 0.02 0.02 0.02 0.02 0.03 0.03 0.03 0.03 0.03 0.02 0.02 0.01 0.02 0.02 0.02 0.01
0.06 0.02 0.02 0.05 0.03 0.01 0.01 0.01 0.02 0.02 0.02 0.01 0.01 0.01 0.01 0.01 0.01 0.02 0.02 0.02 0.01 0.02 0.01 0.01 0.01 0.01 0.01 0.01 0.01 0.02 0.02 0.03 0.04 0.05 0.04 0.04 0.03 0.02 0.01 0.01 0.02 0.02 0.01 0.01
0.02 0.01 0.02 0.04 0.04 0.03 0.02 0.03 0.03 0.03 0.02 0.02 0.02 0.02 0.02 0.02 0.02 0.02 0.02 0.02 0.02 0.02 0.03 0.02 0.01 0.01 0.01 0.01 0.01 0.02 0.03 0.04 0.04 0.04 0.04 0.04 0.03 0.02 0.02 0.01 0.01 0.01 0.01 0.01
0.01 0.01 0.02 0.02 0.02 0.02 0.02 0.03 0.03 0.03 0.02 0.03 0.02 0.02 0.02 0.02 0.03 0.03 0.04 0.03 0.03 0.04 0.05 0.04 0.03 0.02 0.01 0.01 0.01 0.01 0.02 0.02 0.02 0.02 0.03 0.05 0.07 0.06 0.04 0.03 0.03 0.03 0.04 0.04
0.02 0.02 0.02 0.02 0.02 0.02 0.03 0.04 0.04 0.03 0.03 0.03 0.03 0.03 0.02 0.02 0.03 0.04 0.05 0.04 0.04 0.04 0.04 0.04 0.04 0.03 0.02 0.02 0.01 0.01 0.02 0.02 0.02 0.02 0.02 0.03 0.03 0.05 0.04 0.03 0.03 0.03 0.04 0.03
0.05 0.04 0.03 0.03 0.03 0.03 0.03 0.03 0.04 0.03 0.03 0.03 0.04 0.03 0.02 0.03 0.04 0.05 0.07 0.07 0.06 0.04 0.04 0.03 0.03 0.02 0.02 0.02 0.03 0.02 0.02 0.02 0.02 0.02 0.02 0.03 0.03 0.03 0.02 0.02 0.01 0.01 0.01 0.01
0.04 0.04 0.04 0.03 0.03 0.03 0.03 0.03 0.03 0.03 0.03 0.04 0.04 0.03 0.03 0.04 0.03 0.04 0.04 0.05 0.06 0.06 0.06 0.05 0.05 0.05 0.05 0.04 0.04 0.04 0.03 0.02 0.02 0.02 0.03 0.03 0.03 0.03 0.02 0.01 0.01 0.01 0.01 0.01
0.03 0.02 0.03 0.03 0.03 0.02 0.01 0.01 0.02 0.02 0.03 0.03 0.03 0.03 0.03 0.04 0.05 0.05 0.04 0.03 0.03 0.04 0.05 0.05 0.05 0.05 0.06 0.06 0.05 0.05 0.04 0.03 0.02 0.02 0.03 0.03 0.03 0.02 0.02 0.01 0.01 0.01 0.01 0.01
0.02 0.01 0.02 0.02 0.02 0.01 0.01 0.01 0.01 0.02 0.03 0.02 0.02 0.03 0.04 0.06 0.07 0.07 0.08 0.07 0.06 0.04 0.02 0.03 0.03 0.04 0.04 0.05 0.05 0.05 0.05 0.04 0.03 0.03 0.04 0.04 0.03 0.03 0.02 0.02 0.02 0.02 0.02 0.02
0.02 0.02 0.02 0.03 0.02 0.02 0.02 0.02 0.02 0.03 0.04 0.03 0.03 0.03 0.04 0.05 0.08 0.09 0.08 0.08 0.09 0.07 0.04 0.03 0.03 0.03 0.03 0.02 0.02 0.03 0.03 0.04 0.04 0.04 0.03 0.03 0.03 0.03 0.02 0.02 0.03 0.03 0.03 0.02
0.01 0.02 0.02 0.02 0.03 0.03 0.03 0.03 0.02 0.02 0.03 0.04 0.05 0.05 0.06 0.06 0.06 0.06 0.07 0.07 0.06 0.05 0.04 0.03 0.03 0.03 0.03 0.02 0.01 0.02 0.02 0.03 0.03 0.03 0.02 0.02 0.02 0.03 0.03 0.03 0.03 0.03 0.03 0.03
0.01 0.02 0.02 0.03 0.03 0.03 0.03 0.03 0.02 0.03 0.04 0.06 0.08 0.08 0.08 0.09 0.09 0.08 0.08 0.07 0.05 0.04 0.03 0.02 0.02 0.02 0.02 0.02 0.01 0.01 0.01 0.02 0.03 0.03 0.03 0.03 0.03 0.03 0.03 0.04 0.04 0.04 0.03 0.03
0.02 0.03 0.03 0.03 0.03 0.03 0.03 0.03 0.03 0.04 0.05 0.06 0.07 0.09 0.08 0.07 0.07 0.09 0.11 0.10 0.06 0.04 0.03 0.02 0.02 0.02 0.02 0.02 0.02 0.01 0.02 0.02 0.02 0.03 0.03 0.03 0.03 0.03 0.03 0.03 0.03 0.03 0.02 0.02
0.03 0.03 0.03 0.04 0.04 0.04 0.04 0.06 0.06 0.06 0.05 0.05 0.05 0.05 0.07 0.07 0.07 0.08 0.08 0.09 0.07 0.04 0.03 0.03 0.03 0.03 0.02 0.01 0.01 0.01 0.02 0.03 0.03 0.03 0.03 0.03 0.03 0.03 0.03 0.03 0.02 0.02 0.02 0.01
0.05 0.04 0.04 0.05 0.05 0.05 0.06 0.08 0.08 0.07 0.06 0.07 0.06 0.06 0.06 0.06 0.05 0.06 0.06 0.06 0.05 0.04 0.04 0.03 0.03 0.03 0.02 0.03 0.03 0.03 0.03 0.04 0.04 0.04 0.04 0.03 0.03 0.02 0.02 0.01 0.01 0.01 0.01 0.01
0.05 0.06 0.05 0.04 0.04 0.04 0.04 0.06 0.08 0.08 0.07 0.07 0.06 0.05 0.05 0.05 0.05 0.05 0.06 0.05 0.03 0.03 0.03 0.03 0.03 0.03 0.03 0.04 0.04 0.04 0.04 0.05 0.06 0.05 0.04 0.03 0.03 0.03 0.02 0.02 0.02 0.02 0.01 0.01
MSLP
1010.81 1011.13 1011.34 1011.47 1011.56 1011.65 1011.75 1011.87 1012.01 1012.13 1012.24 1012.31 1012.33 1012.31 1012.26 1012.21 1012.17 1012.15 1012.18 1012.24 1012.34 1012.46 1012.59 1012.71 1012.83 1012.93 1013.02 1013.12 1013.23 1013.37 1013.54 1013.76 1014.01 1014.29 1014.60 1014.92 1015.23 1015.51 1015.77 1015.99 1016.17 1016.31 1016.41 1016.50
1011.08 1011.34 1011.43 1011.41 1011.34 1011.26 1011.23 1011.28 1011.41 1011.61 1011.85 1012.11 1012.35 1012.54 1012.67 1012.74 1012.75 1012.72 1012.67 1012.63 1012.59 1012.58 1012.60 1012.64 1012.69 1012.77 1012.87 1012.97 1013.10 1013.26 1013.44 1013.67 1013.93 1014.23 1014.56 1014.91 1015.27 1015.61 1015.92 1016.19 1016.40 1016.57 1016.68 1016.75
1011.38 1011.56 1011.55 1011.41 1011.20 1011.00 1010.88 1010.88 1011.02 1011.30 1011.67 1012.09 1012.51 1012.88 1013.15 1013.32 1013.37 1013.33 1013.22 1013.07 1012.92 1012.79 1012.70 1012.66 1012.66 1012.71 1012.80 1012.92 1013.06 1013.22 1013.41 1013.64 1013.91 1014.21 1014.56 1014.94 1015.34 1015.73 1016.09 1016.40 1016.65 1016.83 1016.94 1017.00
1011.66 1011.76 1011.67 1011.43 1011.13 1010.85 1010.68 1010.67 1010.84 1011.19 1011.67 1012.23 1012.80 1013.30 1013.70 1013.94 1014.03 1013.98 1013.82 1013.60 1013.35 1013.13 1012.96 1012.85 1012.81 1012.83 1012.90 1013.01 1013.14 1013.30 1013.48 1013.69 1013.95 1014.25 1014.59 1014.98 1015.39 1015.81 1016.20 1016.54 1016.82 1017.01 1017.12 1017.16
1011.84 1011.87 1011.71 1011.42 1011.08 1010.78 1010.61 1010.62 1010.83 1011.25 1011.82 1012.49 1013.17 1013.79 1014.27 1014.58 1014.71 1014.66 1014.49 1014.22 1013.92 1013.64 1013.41 1013.25 1013.17 1013.16 1013.20 1013.29 1013.40 1013.53 1013.68 1013.85 1014.06 1014.32 1014.63 1015.00 1015.39 1015.80 1016.19 1016.54 1016.83 1017.03 1017.13 1017.16
1011.87 1011.85 1011.67 1011.37 1011.04 1010.76 1010.62 1010.68 1010.95 1011.44 1012.09 1012.84 1013.60 1014.29 1014.85 1015.22 1015.39 1015.37 1015.20 1014.93 1014.62 1014.31 1014.06 1013.87 1013.76 1013.73 1013.74 1013.79 1013.86 1013.94 1014.02 1014.12 1014.26 1014.44 1014.68 1014.97 1015.30 1015.66 1016.02 1016.34 1016.61 1016.80 1016.91 1016.94
1011.74 1011.72 1011.55 1011.29 1011.01 1010.80 1010.73 1010.85 1011.19 1011.74 1012.44 1013.25 1014.06 1014.80 1015.41 1015.83 1016.04 1016.07 1015.94 1015.70 1015.41 1015.12 1014.87 1014.69 1014.57 1014.51 1014.50 1014.50 1014.51 1014.51 1014.51 1014.52 1014.55 1014.61 1014.73 1014.91 1015.13 1015.40 1015.67 1015.94 1016.16 1016.33 1016.44 1016.48
1011.52 1011.52 1011.40 1011.22 1011.04 1010.93 1010.95 1011.15 1011.56 1012.15 1012.88 1013.71 1014.54 1015.30 1015.93 1016.39 1016.66 1016.74 1016.67 1016.49 1016.26 1016.01 1015.80 1015.64 1015.53 1015.46 1015.41 1015.37 1015.31 1015.23 1015.13 1015.02 1014.91 1014.84 1014.80 1014.83 1014.91 1015.03 1015.19 1015.36 1015.52 1015.66 1015.76 1015.82
1011.31 1011.36 1011.33 1011.26 1011.20 1011.21 1011.33 1011.61 1012.07 1012.68 1013.42 1014.23 1015.05 1015.80 1016.43 1016.91 1017.21 1017.35 1017.35 1017.25 1017.09 1016.92 1016.76 1016.63 1016.54 1016.47 1016.40 1016.31 1016.19 1016.03 1015.82 1015.59 1015.34 1015.11 1014.91 1014.76 1014.67 1014.63 1014.64 1014.69 1014.77 1014.86 1014.95 1015.04
1011.24 1011.37 1011.45 1011.51 1011.57 1011.70 1011.92 1012.27 1012.75 1013.36 1014.07 1014.84 1015.60 1016.30 1016.91 1017.38 1017.70 1017.89 1017.95 1017.93 1017.85 1017.76 1017.67 1017.59 1017.52 1017.45 1017.36 1017.24 1017.06 1016.82 1016.52 1016.17 1015.79 1015.41 1015.05 1014.72 1014.46 1014.25 1014.11 1014.04 1014.02 1014.04 1014.12 1014.22
1011.44 1011.66 1011.85 1012.02 1012.20 1012.43 1012.73 1013.12 1013.61 1014.19 1014.84 1015.52 1016.20 1016.83 1017.37 1017.82 1018.14 1018.35 1018.47 1018.52 1018.52 1018.49 1018.46 1018.42 1018.37 1018.31 1018.21 1018.05 1017.82 1017.51 1017.14 1016.70 1016.21 1015.71 1015.21 1014.73 1014.31 1013.95 1013.67 1013.47 1013.35 1013.32 1013.36 1013.48
1011.97 1012.27 1012.54 1012.82 1013.09 1013.40 1013.75 1014.15 1014.62 1015.14 1015.70 1016.28 1016.85 1017.38 1017.85 1018.24 1018.54 1018.77 1018.92 1019.01 1019.06 1019.09 1019.10 1019.08 1019.05 1018.98 1018.85 1018.66 1018.39 1018.04 1017.61 1017.11 1016.55 1015.96 1015.36 1014.78 1014.24 1013.77 1013.37 1013.06 1012.85 1012.75 1012.75 1012.86
1012.81 1013.16 1013.50 1013.84 1014.17 1014.52 1014.89 1015.28 1015.71 1016.15 1016.61 1017.08 1017.54 1017.96 1018.34 1018.67 1018.94 1019.15 1019.32 1019.43 1019.52 1019.57 1019.59 1019.58 1019.54 1019.44 1019.29 1019.06 1018.76 1018.37 1017.90 1017.36 1016.77 1016.14 1015.49 1014.85 1014.24 1013.68 1013.20 1012.80 1012.52 1012.34 1012.29 1012.36
1013.88 1014.25 1014.61 1014.98 1015.34 1015.70 1016.07 1016.43 1016.79 1017.16 1017.53 1017.89 1018.23 1018.56 1018.85 1019.12 1019.35 1019.55 1019.71 1019.83 1019.91 1019.96 1019.98 1019.95 1019.87 1019.73 1019.53 1019.26 1018.91 1018.50 1018.01 1017.46 1016.86 1016.22 1015.57 1014.91 1014.27 1013.68 1013.14 1012.68 1012.33 1012.08 1011.95 1011.95
1015.05 1015.40 1015.76 1016.12 1016.48 1016.83 1017.17 1017.50 1017.81 1018.10 1018.39 1018.66 1018.91 1019.16 1019.39 1019.60 1019.80 1019.97 1020.11 1020.22 1020.30 1020.33 1020.30 1020.23 1020.09 1019.90 1019.63 1019.31 1018.92 1018.48 1017.98 1017.44 1016.85 1016.24 1015.61 1014.97 1014.33 1013.72 1013.15 1012.65 1012.22 1011.89 1011.67 1011.56
1016.17 1016.49 1016.82 1017.16 1017.50 1017.83 1018.14 1018.43 1018.69 1018.94 1019.16 1019.36 1019.56 1019.75 1019.93 1020.11 1020.28 1020.43 1020.56 1020.65 1020.70 1020.69 1020.62 1020.48 1020.28 1020.01 1019.68 1019.30 1018.87 1018.39 1017.89 1017.36 1016.80 1016.22 1015.63 1015.02 1014.40 1013.79 1013.20 1012.64 1012.14 1011.71 1011.37 1011.13
1017.14 1017.42 1017.72 1018.03 1018.35 1018.65 1018.94 1019.20 1019.44 1019.64 1019.83 1020.00 1020.16 1020.32 1020.47 1020.63 1020.79 1020.92 1021.04 1021.11 1021.12 1021.08 1020.96 1020.76 1020.49 1020.15 1019.75 1019.31 1018.84 1018.34 1017.83 1017.31 1016.78 1016.23 1015.67 1015.09 1014.49 1013.87 1013.25 1012.63 1012.04 1011.50 1011.02 1010.63
1017.92 1018.17 1018.44 1018.73 1019.03 1019.32 1019.59 1019.84 1020.06 1020.25 1020.42 1020.57 1020.71 1020.85 1021.00 1021.15 1021.29 1021.42 1021.53 1021.58 1021.57 1021.49 1021.32 1021.08 1020.75 1020.35 1019.90 1019.42 1018.91 1018.39 1017.88 1017.37 1016.86 1016.34 1015.80 1015.23 1014.63 1013.99 1013.32 1012.63 1011.93 1011.26 1010.63 1010.08
1018.50 1018.74 1019.01 1019.29 1019.59 1019.88 1020.15 1020.39 1020.60 1020.78 1020.94 1021.08 1021.21 1021.35 1021.49 1021.63 1021.77 1021.89 1021.98 1022.03 1022.00 1021.90 1021.71 1021.43 1021.07 1020.64 1020.17 1019.66 1019.13 1018.61 1018.10 1017.59 1017.09 1016.58 1016.05 1015.47 1014.85 1014.17 1013.43 1012.65 1011.84 1011.03 1010.25 1009.54
1018.94 1019.20 1019.49 1019.79 1020.10 1020.39 1020.67 1020.91 1021.12 1021.29 1021.43 1021.56 1021.67 1021.79 1021.92 1022.04 1022.17 1022.28 1022.36 1022.40 1022.37 1022.26 1022.06 1021.78 1021.42 1021.00 1020.52 1020.02 1019.50 1018.99 1018.49 1017.99 1017.49 1016.98 1016.44 1015.84 1015.18 1014.44 1013.62 1012.75 1011.82 1010.89 1009.98 1009.13
1019.32 1019.62 1019.94 1020.28 1020.60 1020.91 1021.19 1021.42 1021.62 1021.77 1021.89 1021.99 1022.08 1022.16 1022.26 1022.36 1022.46 1022.55 1022.62 1022.65 1022.62 1022.52 1022.35 1022.09 1021.76 1021.37 1020.93 1020.46 1019.97 1019.49 1019.01 1018.52 1018.03 1017.52 1016.95 1016.32 1015.61 1014.82 1013.93 1012.96 1011.95 1010.91 1009.89 1008.94
1019.68 1020.04 1020.40 1020.77 1021.11 1021.43 1021.70 1021.92 1022.09 1022.22 1022.30 1022.36 1022.40 1022.44 1022.49 1022.55 1022.62 1022.69 1022.74 1022.76 1022.74 1022.66 1022.52 1022.30 1022.02 1021.68 1021.30 1020.89 1020.46 1020.02 1019.58 1019.12 1018.64 1018.12 1017.54 1016.89 1016.14 1015.30 1014.36 1013.34 1012.26 1011.16 1010.08 1009.07
1020.04 1020.44 1020.85 1021.23 1021.59 1021.91 1022.16 1022.36 1022.50 1022.58 1022.61 1022.62 1022.61 1022.60 1022.60 1022.61 1022.64 1022.67 1022.71 1022.72 1022.71 1022.65 1022.54 1022.38 1022.16 1021.90 1021.59 1021.25 1020.89 1020.51 1020.11 1019.68 1019.23 1018.72 1018.14 1017.48 1016.72 1015.86 1014.91 1013.87 1012.78 1011.67 1010.59 1009.58
1020.37 1020.81 1021.23 1021.63 1021.98 1022.28 1022.51 1022.68 1022.77 1022.81 1022.80 1022.75 1022.69 1022.63 1022.57 1022.54 1022.53 1022.53 1022.54 1022.55 1022.54 1022.50 1022.43 1022.32 1022.16 1021.97 1021.73 1021.47 1021.17 1020.86 1020.51 1020.14 1019.72 1019.24 1018.68 1018.04 1017.30 1016.47 1015.54 1014.54 1013.49 1012.43 1011.40 1010.43
1020.65 1021.09 1021.51 1021.89 1022.22 1022.49 1022.69 1022.81 1022.87 1022.87 1022.81 1022.73 1022.63 1022.53 1022.44 1022.37 1022.32 1022.29 1022.28 1022.28 1022.27 1022.25 1022.20 1022.13 1022.02 1021.88 1021.71 1021.51 1021.28 1021.03 1020.74 1020.42 1020.05 1019.62 1019.11 1018.52 1017.84 1017.07 1016.22 1015.31 1014.36 1013.39 1012.46 1011.59
1020.84 1021.25 1021.64 1021.98 1022.27 1022.50 1022.66 1022.75 1022.78 1022.75 1022.67 1022.57 1022.45 1022.33 1022.22 1022.13 1022.06 1022.02 1021.99 1021.97 1021.96 1021.93 1021.90 1021.84 1021.76 1021.66 1021.54 1021.39 1021.22 1021.02 1020.79 1020.52 1020.21 1019.85 1019.41 1018.91 1018.32 1017.66 1016.92 1016.14 1015.31 1014.49 1013.68 1012.94
1020.93 1021.28 1021.62 1021.91 1022.15 1022.33 1022.46 1022.52 1022.53 1022.49 1022.42 1022.31 1022.20 1022.09 1021.98 1021.89 1021.82 1021.76 1021.72 1021.68 1021.65 1021.62 1021.58 1021.52 1021.45 1021.37 1021.26 1021.15 1021.01 1020.86 1020.68 1020.48 1020.24 1019.95 1019.61 1019.20 1018.73 1018.20 1017.61 1016.97 1016.31 1015.63 1014.98 1014.37
Thickness
5797 5812 5819 5819 5820 5827 5825 5827 5821 5826 5824 5829 5841 5839 5839 5843 5843 5840 5836 5834 5831 5827 5824 5820 5816 5813 5810 5805 5801 5797 5790 5784 5779 5776 5772 5769 5765 5761 5758 5755 5752 5748 5745 5742
5780 5799 5808 5809 5820 5825 5826 5830 5831 5834 5830 5845 5847 5842 5835 5838 5838 5833 5831 5830 5828 5824 5820 5816 5813 5810 5807 5802 5798 5793 5787 5782 5778 5773 5769 5765 5761 5757 5753 5749 5746 5742 5739 5735
5764 5786 5792 5789 5813 5822 5826 5833 5832 5824 5831 5845 5836 5834 5832 5834 5833 5830 5829 5828 5824 5821 5817 5814 5812 5809 5804 5800 5796 5790 5784 5779 5775 5770 5765 5761 5758 5752 5748 5743 5740 5736 5732 5728
5758 5767 5753 5796 5832 5833 5828 5831 5839 5838 5841 5842 5837 5837 5837 5836 5832 5829 5827 5825 5822 5819 5815 5813 5811 5807 5803 5797 5791 5786 5780 5775 5771 5767 5761 5757 5753 5748 5743 5739 5734 5730 5726 5722
5750 5750 5764 5797 5819 5825 5818 5816 5835 5834 5834 5836 5839 5831 5827 5833 5831 5826 5825 5823 5821 5819 5814 5810 5806 5803 5798 5792 5787 5781 5776 5771 5767 5763 5757 5752 5747 5742 5738 5734 5729 5725 5721 5716
5745 5741 5747 5785 5819 5832 5819 5798 5828 5831 5827 5827 5824 5804 5807 5824 5826 5822 5820 5818 5815 5813 5809 5804 5801 5798 5791 5785 5780 5776 5772 5768 5764 5759 5754 5748 5743 5738 5734 5730 5725 5720 5715 5711
5737 5741 5760 5795 5815 5818 5782 5786 5818 5823 5823 5820 5814 5811 5815 5819 5818 5816 5813 5810 5807 5805 5800 5797 5795 5791 5784 5779 5774 5772 5769 5764 5759 5755 5750 5744 5739 5734 5729 5724 5719 5715 5710 5705
5734 5734 5747 5792 5799 5788 5787 5806 5812 5813 5815 5811 5812 5812 5809 5807 5806 5806 5804 5802 5800 5795 5791 5790 5789 5783 5776 5771 5770 5767 5763 5757 5752 5748 5745 5740 5733 5728 5723 5718 5713 5708 5704 5699
5738 5743 5765 5782 5784 5791 5799 5798 5802 5804 5806 5806 5801 5799 5798 5797 5797 5797 5796 5794 5792 5788 5783 5782 5781 5777 5769 5766 5764 5760 5755 5749 5745 5741 5737 5733 5727 5722 5717 5713 5710 5705 5700 5695
5734 5743 5758 5768 5778 5785 5789 5791 5795 5798 5798 5798 5793 5791 5789 5788 5787 5787 5787 5785 5784 5780 5775 5773 5772 5769 5765 5761 5758 5753 5747 5743 5739 5734 5729 5725 5721 5717 5712 5708 5704 5700 5696 5691
5726 5735 5744 5753 5763 5771 5777 5782 5785 5787 5789 5789 5787 5783 5781 5777 5776 5776 5777 5777 5776 5772 5768 5766 5764 5761 5758 5755 5751 5745 5740 5736 5732 5728 5723 5718 5713 5707 5704 5699 5697 5694 5690 5686
5714 5728 5733 5738 5751 5759 5763 5767 5772 5774 5776 5779 5778 5774 5772 5768 5768 5768 5767 5767 5766 5764 5761 5759 5756 5753 5751 5748 5745 5739 5733 5729 5726 5723 5717 5711 5705 5698 5691 5690 5686 5684 5681 5677
5720 5730 5734 5737 5743 5749 5753 5759 5763 5764 5765 5765 5766 5766 5764 5761 5759 5759 5758 5758 5757 5756 5754 5752 5748 5745 5743 5741 5737 5733 5728 5724 5721 5717 5712 5707 5702 5696 5688 5680 5675 5673 5670 5667
5719 5722 5720 5723 5728 5737 5742 5748 5752 5753 5755 5756 5756 5756 5754 5752 5750 5749 5749 5750 5750 5748 5746 5744 5740 5736 5735 5733 5730 5726 5722 5718 5716 5712 5708 5703 5698 5694 5688 5681 5674 5666 5660 5656
5709 5713 5713 5717 5721 5726 5732 5736 5737 5738 5741 5741 5744 5745 5743 5741 5739 5740 5741 5743 5741 5738 5736 5734 5731 5728 5727 5725 5721 5718 5715 5712 5709 5706 5702 5698 5693 5688 5683 5678 5672 5665 5656 5649
5699 5703 5706 5707 5710 5715 5719 5721 5722 5725 5728 5731 5733 5734 5734 5733 5732 5732 5733 5733 5730 5727 5726 5725 5722 5720 5719 5716 5713 5710 5707 5703 5701 5699 5695 5691 5686 5682 5677 5671 5666 5661 5654 5647
5686 5688 5691 5695 5700 5705 5708 5712 5713 5715 5718 5720 5722 5724 5724 5723 5721 5721 5722 5722 5721 5719 5717 5715 5714 5713 5711 5709 5706 5703 5699 5695 5692 5691 5688 5684 5680 5675 5670 5665 5661 5655 5650 5644
5683 5685 5689 5691 5693 5695 5698 5702 5705 5707 5708 5712 5714 5714 5713 5712 5711 5710 5711 5711 5710 5708 5707 5706 5705 5703 5702 5700 5697 5695 5692 5688 5685 5683 5681 5678 5673 5669 5665 5659 5655 5650 5644 5637
5675 5677 5681 5684 5687 5689 5691 5693 5695 5698 5700 5702 5703 5703 5703 5703 5702 5702 5701 5700 5699 5697 5697 5697 5694 5694 5692 5690 5688 5686 5684 5681 5677 5675 5672 5667 5664 5661 5657 5653 5648 5644 5639 5633
5667 5671 5673 5675 5678 5680 5682 5684 5687 5688 5691 5693 5693 5692 5691 5692 5692 5692 5691 5689 5689 5689 5689 5687 5686 5685 5684 5681 5678 5678 5676 5673 5669 5666 5663 5660 5656 5652 5649 5645 5642 5638 5633 5628
5658 5661 5663 5664 5667 5670 5674 5676 5678 5679 5681 5683 5683 5682 5682 5682 5682 5682 5681 5679 5679 5680 5679 5677 5677 5676 5675 5673 5669 5669 5667 5664 5661 5658 5654 5651 5648 5644 5641 5638 5635 5631 5627 5623
5648 5650 5652 5655 5657 5660 5665 5668 5669 5671 5672 5673 5674 5674 5673 5672 5673 5673 5673 5672 5672 5669 5670 5670 5670 5668 5666 5663 5662 5661 5659 5656 5653 5650 5646 5643 5639 5636 5634 5631 5627 5624 5621 5617
5638 5641 5643 5645 5648 5651 5655 5658 5661 5662 5663 5663 5664 5664 5664 5664 5665 5664 5662 5664 5664 5661 5662 5661 5659 5656 5654 5654 5654 5653 5651 5648 5646 5643 5640 5636 5633 5630 5627 5624 5621 5617 5614 5611
5630 5633 5635 5638 5641 5642 5644 5648 5651 5653 5654 5655 5656 5656 5656 5656 5657 5658 5657 5654 5653 5651 5653 5649 5647 5646 5644 5646 5645 5644 5643 5641 5639 5637 5634 5631 5628 5624 5621 5617 5614 5611 5608 5604
5622 5626 5628 5630 5632 5634 5637 5640 5642 5643 5645 5646 5648 5649 5650 5650 5649 5649 5649 5647 5643 5643 5643 5639 5638 5637 5637 5638 5638 5637 5635 5634 5633 5630 5628 5626 5622 5618 5615 5611 5607 5604 5600 5596
5616 5619 5622 5624 5626 5628 5631 5633 5634 5636 5637 5638 5639 5641 5642 5643 5642 5642 5641 5639 5637 5635 5635 5633 5631 5629 5631 5631 5631 5630 5629 5627 5625 5623 5621 5618 5615 5612 5609 5605 5601 5597 5593 5589
5610 5613 5615 5618 5621 5624 5626 5627 5627 5628 5630 5630 5630 5632 5634 5635 5634 5633 5632 5631 5630 5629 5628 5626 5625 5624 5624 5624 5623 5622 5621 5619 5618 5616 5613 5610 5607 5604 5601 5597 5593 5589 5585 5581